Time,TemperatureF,DewpointF,PressureIn,WindDirection,WindDirectionDegrees,WindSpeedMPH,WindSpeedGustMPH,Humidity,HourlyPrecipIn,Conditions,Clouds,dailyrainin,SolarRadiationWatts/m^2,SoftwareType,DateUTC
2013-04-09 00:00:00,39.4,33.5,29.55,WNW,284,0.0,5.0,79,0.00,,,0.00,0.0,WUHU216DAVISVP2,2013-04-08 23:00:00,
2013-04-09 00:05:00,39.4,33.5,29.55,WNW,284,0.0,5.0,79,0.00,,,0.00,0.0,WUHU216DAVISVP2,2013-04-08 23:05:00,
2013-04-09 00:10:00,39.4,33.5,29.55,WNW,284,0.0,2.0,79,0.00,,,0.00,0.0,WUHU216DAVISVP2,2013-04-08 23:10:00,
2013-04-09 00:15:00,39.4,33.7,29.54,WNW,284,0.0,4.0,80,0.00,,,0.00,0.0,WUHU216DAVISVP2,2013-04-08 23:15:00,
2013-04-09 00:20:00,39.4,33.8,29.53,WNW,298,4.0,4.0,80,0.00,,,0.00,0.0,WUHU216DAVISVP2,2013-04-08 23:20:00,
2013-04-09 00:25:00,39.4,33.8,29.53,NW,315,0.0,5.0,80,0.00,,,0.00,0.0,WUHU216DAVISVP2,2013-04-08 23:25:00,
2013-04-09 00:30:00,39.3,33.7,29.53,NW,316,0.0,5.0,80,0.00,,,0.00,0.0,WUHU216DAVISVP2,2013-04-08 23:30:00,
2013-04-09 00:35:00,39.3,33.7,29.53,NW,316,0.0,5.0,80,0.00,,,0.00,0.0,WUHU216DAVISVP2,2013-04-08 23:35:00,
2013-04-09 00:40:00,39.2,33.5,29.52,NW,316,0.0,5.0,80,0.00,,,0.00,0.0,WUHU216DAVISVP2,2013-04-08 23:40:00,
2013-04-09 00:45:00,39.0,33.7,29.52,NW,311,0.0,5.0,81,0.00,,,0.00,0.0,WUHU216DAVISVP2,2013-04-08 23:45:00,
2013-04-09 00:50:00,38.9,33.6,29.52,NW,306,0.0,2.0,81,0.00,,,0.00,0.0,WUHU216DAVISVP2,2013-04-08 23:50:00,
2013-04-09 00:55:00,38.7,33.4,29.52,WNW,292,0.0,2.0,81,0.00,,,0.00,0.0,WUHU216DAVISVP2,2013-04-08 23:55:00,
2013-04-09 01:00:00,38.5,33.5,29.52,WNW,303,0.0,4.0,82,0.00,,,0.00,0.0,WUHU216DAVISVP2,2013-04-09 00:00:00,
2013-04-09 01:05:00,38.4,33.4,29.52,NW,304,0.0,4.0,82,0.00,,,0.00,0.0,WUHU216DAVISVP2,2013-04-09 00:05:00,
2013-04-09 01:10:00,38.2,33.2,29.52,WNW,300,4.0,4.0,82,0.00,,,0.00,0.0,WUHU216DAVISVP2,2013-04-09 00:10:00,
2013-04-09 01:15:00,38.1,33.4,29.51,WNW,300,1.0,4.0,83,0.00,,,0.00,0.0,WUHU216DAVISVP2,2013-04-09 00:15:00,
2013-04-09 01:20:00,38.0,33.3,29.51,WNW,296,0.0,4.0,83,0.00,,,0.00,0.0,WUHU216DAVISVP2,2013-04-09 00:20:00,
2013-04-09 01:25:00,37.9,33.5,29.51,WNW,295,1.0,4.0,84,0.00,,,0.00,0.0,WUHU216DAVISVP2,2013-04-09 00:25:00,
2013-04-09 01:30:00,37.9,33.5,29.51,WNW,295,1.0,4.0,84,0.00,,,0.00,0.0,WUHU216DAVISVP2,2013-04-09 00:30:00,
2013-04-09 01:35:00,37.9,33.5,29.50,WNW,296,0.0,4.0,84,0.00,,,0.00,0.0,WUHU216DAVISVP2,2013-04-09 00:35:00,
2013-04-09 01:40:00,37.8,33.7,29.50,WNW,297,0.0,4.0,85,0.00,,,0.00,0.0,WUHU216DAVISVP2,2013-04-09 00:40:00,
2013-04-09 01:45:00,37.7,33.6,29.50,WNW,297,0.0,2.0,85,0.00,,,0.00,0.0,WUHU216DAVISVP2,2013-04-09 00:45:00,
2013-04-09 01:50:00,37.7,33.6,29.49,WNW,297,0.0,2.0,85,0.00,,,0.00,0.0,WUHU216DAVISVP2,2013-04-09 00:50:00,
2013-04-09 01:55:00,37.5,33.4,29.49,WNW,299,0.0,2.0,85,0.00,,,0.00,0.0,WUHU216DAVISVP2,2013-04-09 00:55:00,
2013-04-09 02:00:00,37.3,33.5,29.49,WNW,297,2.0,3.0,86,0.00,,,0.00,0.0,WUHU216DAVISVP2,2013-04-09 01:00:00,
2013-04-09 02:05:00,37.2,33.4,29.49,WNW,297,0.0,4.0,86,0.00,,,0.00,0.0,WUHU216DAVISVP2,2013-04-09 01:05:00,
2013-04-09 02:10:00,37.0,33.2,29.48,WNW,297,0.0,4.0,86,0.00,,,0.00,0.0,WUHU216DAVISVP2,2013-04-09 01:10:00,
2013-04-09 02:15:00,36.9,33.4,29.48,WNW,300,0.0,4.0,87,0.00,,,0.00,0.0,WUHU216DAVISVP2,2013-04-09 01:15:00,
2013-04-09 02:20:00,36.8,33.3,29.48,WNW,300,1.0,2.0,87,0.00,,,0.00,0.0,WUHU216DAVISVP2,2013-04-09 01:20:00,
2013-04-09 02:25:00,36.7,33.2,29.48,WNW,300,0.0,2.0,87,0.00,,,0.00,0.0,WUHU216DAVISVP2,2013-04-09 01:25:00,
2013-04-09 02:30:00,36.7,33.4,29.47,WNW,300,0.0,2.0,88,0.00,,,0.00,0.0,WUHU216DAVISVP2,2013-04-09 01:30:00,
2013-04-09 02:35:00,36.7,33.4,29.47,WNW,300,0.0,2.0,88,0.00,,,0.00,0.0,WUHU216DAVISVP2,2013-04-09 01:35:00,
2013-04-09 02:41:00,36.7,33.4,29.47,WNW,300,0.0,2.0,88,0.00,,,0.00,0.0,WUHU216DAVISVP2,2013-04-09 01:41:00,
2013-04-09 02:46:00,36.7,33.7,29.47,WNW,300,0.0,2.0,89,0.00,,,0.00,0.0,WUHU216DAVISVP2,2013-04-09 01:46:00,
2013-04-09 02:51:00,36.7,33.7,29.47,WNW,300,0.0,2.0,89,0.00,,,0.00,0.0,WUHU216DAVISVP2,2013-04-09 01:51:00,
2013-04-09 02:56:00,36.8,33.8,29.47,WNW,302,0.0,5.0,89,0.00,,,0.00,0.0,WUHU216DAVISVP2,2013-04-09 01:56:00,
2013-04-09 03:01:00,36.8,33.8,29.47,NNE,23,0.0,5.0,89,0.00,,,0.00,0.0,WUHU216DAVISVP2,2013-04-09 02:01:00,
2013-04-09 03:07:00,36.8,33.8,29.46,WNW,294,0.0,5.0,89,0.00,,,0.00,0.0,WUHU216DAVISVP2,2013-04-09 02:07:00,
2013-04-09 03:12:00,36.8,33.8,29.46,WNW,292,0.0,5.0,89,0.00,,,0.00,0.0,WUHU216DAVISVP2,2013-04-09 02:12:00,
2013-04-09 03:17:00,36.8,33.8,29.46,NW,320,1.0,4.0,89,0.00,,,0.00,0.0,WUHU216DAVISVP2,2013-04-09 02:17:00,
2013-04-09 03:22:00,36.8,33.8,29.46,NW,322,1.0,4.0,89,0.00,,,0.00,0.0,WUHU216DAVISVP2,2013-04-09 02:22:00,
2013-04-09 03:27:00,36.8,33.8,29.45,NW,322,0.0,4.0,89,0.00,,,0.00,0.0,WUHU216DAVISVP2,2013-04-09 02:27:00,
2013-04-09 03:33:00,36.8,33.8,29.45,NW,322,0.0,2.0,89,0.00,,,0.00,0.0,WUHU216DAVISVP2,2013-04-09 02:33:00,
2013-04-09 03:38:00,36.8,33.8,29.45,NW,309,0.0,2.0,89,0.00,,,0.00,0.0,WUHU216DAVISVP2,2013-04-09 02:38:00,
2013-04-09 03:43:00,36.8,33.8,29.45,NW,309,0.0,2.0,89,0.00,,,0.00,0.0,WUHU216DAVISVP2,2013-04-09 02:43:00,
2013-04-09 03:48:00,36.8,33.8,29.45,NW,309,0.0,2.0,89,0.00,,,0.00,0.0,WUHU216DAVISVP2,2013-04-09 02:48:00,
2013-04-09 03:53:00,36.8,33.8,29.44,NW,309,0.0,2.0,89,0.00,,,0.00,0.0,WUHU216DAVISVP2,2013-04-09 02:53:00,
2013-04-09 03:58:00,36.8,33.8,29.44,West,281,0.0,5.0,89,0.00,,,0.00,0.0,WUHU216DAVISVP2,2013-04-09 02:58:00,
2013-04-09 04:03:00,36.9,33.9,29.44,WNW,284,0.0,5.0,89,0.00,,,0.00,0.0,WUHU216DAVISVP2,2013-04-09 03:03:00,
2013-04-09 04:08:00,36.9,33.9,29.44,WNW,284,0.0,5.0,89,0.00,,,0.00,0.0,WUHU216DAVISVP2,2013-04-09 03:08:00,
2013-04-09 04:13:00,36.9,33.9,29.44,NE,49,0.0,5.0,89,0.00,,,0.00,0.0,WUHU216DAVISVP2,2013-04-09 03:13:00,
2013-04-09 04:18:00,36.9,33.9,29.43,NNW,329,0.0,2.0,89,0.00,,,0.00,0.0,WUHU216DAVISVP2,2013-04-09 03:18:00,
2013-04-09 04:23:00,36.9,34.0,29.43,NW,309,0.0,2.0,89,0.00,,,0.00,0.0,WUHU216DAVISVP2,2013-04-09 03:23:00,
2013-04-09 04:28:00,36.9,34.0,29.43,NW,309,0.0,2.0,89,0.00,,,0.00,0.0,WUHU216DAVISVP2,2013-04-09 03:28:00,
2013-04-09 04:33:00,36.9,34.0,29.43,NW,309,1.0,2.0,89,0.00,,,0.00,0.0,WUHU216DAVISVP2,2013-04-09 03:33:00,
2013-04-09 04:38:00,37.0,34.1,29.43,NW,309,0.0,2.0,89,0.00,,,0.00,0.0,WUHU216DAVISVP2,2013-04-09 03:38:00,
2013-04-09 04:43:00,37.0,34.1,29.42,NW,309,0.0,2.0,89,0.00,,,0.00,0.0,WUHU216DAVISVP2,2013-04-09 03:43:00,
2013-04-09 04:48:00,37.1,34.1,29.42,NW,309,0.0,1.0,89,0.00,,,0.00,0.0,WUHU216DAVISVP2,2013-04-09 03:48:00,
2013-04-09 04:53:00,37.1,34.1,29.42,NW,309,0.0,1.0,89,0.00,,,0.00,0.0,WUHU216DAVISVP2,2013-04-09 03:53:00,
2013-04-09 04:58:00,37.1,34.1,29.42,NW,309,0.0,2.0,89,0.00,,,0.00,0.0,WUHU216DAVISVP2,2013-04-09 03:58:00,
2013-04-09 05:00:00,37.1,34.1,29.42,NW,309,0.0,2.0,89,0.00,,,0.00,0.0,WUHU216DAVISVP2,2013-04-09 04:00:00,
2013-04-09 05:01:00,37.1,34.1,29.42,NW,309,0.0,2.0,89,0.00,,,0.00,0.0,WUHU216DAVISVP2,2013-04-09 04:01:00,
2013-04-09 05:06:00,37.1,34.1,29.41,WNW,302,0.0,2.0,89,0.00,,,0.00,0.0,WUHU216DAVISVP2,2013-04-09 04:06:00,
2013-04-09 05:11:00,37.1,34.1,29.41,WNW,302,0.0,2.0,89,0.00,,,0.00,0.0,WUHU216DAVISVP2,2013-04-09 04:11:00,
2013-04-09 05:16:00,37.1,34.1,29.41,WNW,302,0.0,2.0,89,0.00,,,0.00,0.0,WUHU216DAVISVP2,2013-04-09 04:16:00,
2013-04-09 05:21:00,37.1,34.1,29.41,WNW,302,0.0,1.0,89,0.00,,,0.00,0.0,WUHU216DAVISVP2,2013-04-09 04:21:00,
2013-04-09 05:26:00,37.1,34.1,29.41,WNW,302,0.0,2.0,89,0.00,,,0.00,0.0,WUHU216DAVISVP2,2013-04-09 04:26:00,
2013-04-09 05:31:00,37.1,34.1,29.40,WNW,302,0.0,2.0,89,0.00,,,0.00,0.0,WUHU216DAVISVP2,2013-04-09 04:31:00,
2013-04-09 05:36:00,37.2,34.3,29.41,WNW,302,0.0,2.0,89,0.00,,,0.00,0.0,WUHU216DAVISVP2,2013-04-09 04:36:00,
2013-04-09 05:41:00,37.2,34.0,29.40,NW,321,0.0,5.0,88,0.00,,,0.00,0.0,WUHU216DAVISVP2,2013-04-09 04:41:00,
2013-04-09 05:46:00,37.2,34.0,29.41,NW,321,1.0,5.0,88,0.00,,,0.00,0.0,WUHU216DAVISVP2,2013-04-09 04:46:00,
2013-04-09 05:51:00,37.2,34.0,29.40,WNW,303,0.0,5.0,88,0.00,,,0.00,0.0,WUHU216DAVISVP2,2013-04-09 04:51:00,
2013-04-09 05:56:00,37.3,34.1,29.40,North,5,0.0,5.0,88,0.00,,,0.00,0.0,WUHU216DAVISVP2,2013-04-09 04:56:00,
2013-04-09 06:02:00,37.3,34.0,29.40,North,9,0.0,2.0,88,0.00,,,0.00,0.0,WUHU216DAVISVP2,2013-04-09 05:02:00,
2013-04-09 06:07:00,37.3,34.0,29.40,North,9,0.0,2.0,88,0.00,,,0.00,0.0,WUHU216DAVISVP2,2013-04-09 05:07:00,
2013-04-09 06:12:00,37.4,34.1,29.40,NW,307,0.0,2.0,88,0.00,,,0.00,0.0,WUHU216DAVISVP2,2013-04-09 05:12:00,
2013-04-09 06:17:00,37.5,34.5,29.39,NNE,33,0.0,1.0,89,0.00,,,0.00,0.0,WUHU216DAVISVP2,2013-04-09 05:17:00,
2013-04-09 06:22:00,37.5,34.5,29.39,North,355,0.0,1.0,89,0.00,,,0.00,0.0,WUHU216DAVISVP2,2013-04-09 05:22:00,
2013-04-09 06:27:00,37.5,34.5,29.39,NNW,348,0.0,2.0,89,0.00,,,0.00,0.0,WUHU216DAVISVP2,2013-04-09 05:27:00,
2013-04-09 06:32:00,37.5,34.8,29.39,NW,312,0.0,2.0,90,0.00,,,0.00,0.0,WUHU216DAVISVP2,2013-04-09 05:32:00,
2013-04-09 06:37:00,37.5,34.8,29.39,NW,312,0.0,2.0,90,0.00,,,0.00,0.0,WUHU216DAVISVP2,2013-04-09 05:37:00,
2013-04-09 06:42:00,37.5,34.8,29.39,NW,306,1.0,2.0,90,0.01,,,0.01,0.0,WUHU216DAVISVP2,2013-04-09 05:42:00,
2013-04-09 06:47:00,37.5,34.8,29.39,NNW,327,3.0,3.0,90,0.01,,,0.01,5.0,WUHU216DAVISVP2,2013-04-09 05:47:00,
2013-04-09 06:52:00,37.5,35.1,29.39,NNW,327,0.0,4.0,91,0.01,,,0.01,7.0,WUHU216DAVISVP2,2013-04-09 05:52:00,
2013-04-09 06:57:00,37.5,35.1,29.39,WNW,297,0.0,4.0,91,0.01,,,0.01,11.0,WUHU216DAVISVP2,2013-04-09 05:57:00,
2013-04-09 07:02:00,37.5,35.1,29.39,WNW,297,0.0,4.0,91,0.01,,,0.01,11.0,WUHU216DAVISVP2,2013-04-09 06:02:00,
2013-04-09 07:07:00,37.5,35.1,29.39,WNW,297,0.0,2.0,91,0.02,,,0.02,12.0,WUHU216DAVISVP2,2013-04-09 06:07:00,
2013-04-09 07:12:00,37.6,35.2,29.39,WNW,297,0.0,2.0,91,0.02,,,0.02,14.0,WUHU216DAVISVP2,2013-04-09 06:12:00,
2013-04-09 07:17:00,37.6,35.2,29.39,WNW,297,0.0,2.0,91,0.02,,,0.02,14.0,WUHU216DAVISVP2,2013-04-09 06:17:00,
2013-04-09 07:22:00,37.7,35.3,29.39,WNW,296,0.0,2.0,91,0.02,,,0.02,14.0,WUHU216DAVISVP2,2013-04-09 06:22:00,
2013-04-09 07:27:00,37.7,35.3,29.39,WNW,297,0.0,2.0,91,0.02,,,0.02,12.0,WUHU216DAVISVP2,2013-04-09 06:27:00,
2013-04-09 07:32:00,37.8,35.6,29.39,WNW,297,0.0,2.0,92,0.02,,,0.02,12.0,WUHU216DAVISVP2,2013-04-09 06:32:00,
2013-04-09 07:37:00,37.8,35.6,29.39,WNW,297,0.0,2.0,92,0.02,,,0.02,18.0,WUHU216DAVISVP2,2013-04-09 06:37:00,
2013-04-09 07:42:00,37.9,35.7,29.39,WNW,297,0.0,2.0,92,0.01,,,0.02,19.0,WUHU216DAVISVP2,2013-04-09 06:42:00,
2013-04-09 07:47:00,38.0,35.8,29.39,NW,317,0.0,2.0,92,0.01,,,0.02,23.0,WUHU216DAVISVP2,2013-04-09 06:47:00,
2013-04-09 07:52:00,38.0,35.9,29.39,NW,317,0.0,2.0,92,0.02,,,0.03,19.0,WUHU216DAVISVP2,2013-04-09 06:52:00,
2013-04-09 07:57:00,38.1,35.9,29.39,WNW,284,0.0,2.0,92,0.02,,,0.03,16.0,WUHU216DAVISVP2,2013-04-09 06:57:00,
2013-04-09 08:02:00,38.2,36.0,29.39,WNW,284,0.0,1.0,92,0.02,,,0.03,19.0,WUHU216DAVISVP2,2013-04-09 07:02:00,
2013-04-09 08:07:00,38.2,36.1,29.39,WNW,284,1.0,2.0,92,0.02,,,0.04,14.0,WUHU216DAVISVP2,2013-04-09 07:07:00,
2013-04-09 08:12:00,38.3,36.1,29.39,WNW,284,0.0,2.0,92,0.02,,,0.04,21.0,WUHU216DAVISVP2,2013-04-09 07:12:00,
2013-04-09 08:17:00,38.4,36.5,29.39,WNW,284,0.0,2.0,93,0.03,,,0.05,23.0,WUHU216DAVISVP2,2013-04-09 07:17:00,
2013-04-09 08:22:00,38.5,36.7,29.39,WNW,284,0.0,2.0,93,0.04,,,0.06,40.0,WUHU216DAVISVP2,2013-04-09 07:22:00,
2013-04-09 08:28:00,38.6,36.7,29.39,WNW,284,0.0,2.0,93,0.05,,,0.07,39.0,WUHU216DAVISVP2,2013-04-09 07:28:00,
2013-04-09 08:33:00,38.7,36.8,29.39,WNW,284,0.0,1.0,93,0.05,,,0.07,26.0,WUHU216DAVISVP2,2013-04-09 07:33:00,
2013-04-09 08:38:00,38.8,36.9,29.39,WNW,284,0.0,1.0,93,0.05,,,0.07,21.0,WUHU216DAVISVP2,2013-04-09 07:38:00,
2013-04-09 08:43:00,38.8,36.9,29.40,WNW,284,0.0,1.0,93,0.06,,,0.08,25.0,WUHU216DAVISVP2,2013-04-09 07:43:00,
2013-04-09 08:48:00,38.9,37.3,29.39,WNW,284,0.0,1.0,94,0.07,,,0.09,40.0,WUHU216DAVISVP2,2013-04-09 07:48:00,
2013-04-09 08:53:00,39.0,37.4,29.39,WNW,284,0.0,1.0,94,0.06,,,0.09,33.0,WUHU216DAVISVP2,2013-04-09 07:53:00,
2013-04-09 08:58:00,39.1,37.5,29.39,WNW,284,0.0,1.0,94,0.07,,,0.10,54.0,WUHU216DAVISVP2,2013-04-09 07:58:00,
2013-04-09 09:03:00,39.3,37.7,29.39,WNW,284,0.0,1.0,94,0.07,,,0.10,74.0,WUHU216DAVISVP2,2013-04-09 08:03:00,
2013-04-09 09:08:00,39.4,37.8,29.39,WNW,284,0.0,1.0,94,0.07,,,0.11,84.0,WUHU216DAVISVP2,2013-04-09 08:08:00,
2013-04-09 09:13:00,39.6,38.0,29.39,WNW,284,0.0,1.0,94,0.06,,,0.11,53.0,WUHU216DAVISVP2,2013-04-09 08:13:00,
2013-04-09 09:18:00,39.6,38.0,29.39,WNW,284,0.0,1.0,94,0.06,,,0.11,40.0,WUHU216DAVISVP2,2013-04-09 08:18:00,
2013-04-09 09:23:00,39.7,38.1,29.39,WNW,284,0.0,2.0,94,0.05,,,0.11,54.0,WUHU216DAVISVP2,2013-04-09 08:23:00,
2013-04-09 09:28:00,39.8,38.2,29.38,WNW,284,0.0,2.0,94,0.04,,,0.11,67.0,WUHU216DAVISVP2,2013-04-09 08:28:00,
2013-04-09 09:31:00,39.9,38.5,29.38,WNW,284,0.0,1.0,95,0.04,,,0.11,54.0,WUHU216DAVISVP2,2013-04-09 08:31:00,
2013-04-09 09:33:00,39.9,38.5,29.38,WNW,284,0.0,2.0,95,0.04,,,0.11,54.0,WUHU216DAVISVP2,2013-04-09 08:33:00,
2013-04-09 09:38:00,39.9,38.5,29.38,WNW,284,0.0,2.0,95,0.04,,,0.11,54.0,WUHU216DAVISVP2,2013-04-09 08:38:00,
2013-04-09 09:43:00,40.2,38.6,29.38,WNW,290,0.0,1.0,94,0.03,,,0.11,83.0,WUHU216DAVISVP2,2013-04-09 08:43:00,
2013-04-09 09:48:00,40.4,38.8,29.38,WNW,290,0.0,2.0,94,0.02,,,0.11,125.0,WUHU216DAVISVP2,2013-04-09 08:48:00,
2013-04-09 09:53:00,40.7,39.3,29.39,WNW,290,0.0,2.0,95,0.02,,,0.11,95.0,WUHU216DAVISVP2,2013-04-09 08:53:00,
2013-04-09 09:58:00,40.9,39.5,29.39,WNW,297,0.0,4.0,95,0.01,,,0.11,116.0,WUHU216DAVISVP2,2013-04-09 08:58:00,
2013-04-09 10:03:00,41.2,39.8,29.38,West,281,0.0,4.0,95,0.01,,,0.11,163.0,WUHU216DAVISVP2,2013-04-09 09:03:00,
2013-04-09 10:08:00,41.6,40.0,29.38,WNW,290,0.0,6.0,94,0.00,,,0.11,158.0,WUHU216DAVISVP2,2013-04-09 09:08:00,
2013-04-09 10:13:00,42.0,40.4,29.38,NNW,342,0.0,6.0,94,0.00,,,0.11,169.0,WUHU216DAVISVP2,2013-04-09 09:13:00,
2013-04-09 10:18:00,42.3,40.7,29.38,NW,325,0.0,6.0,94,0.00,,,0.11,160.0,WUHU216DAVISVP2,2013-04-09 09:18:00,
2013-04-09 10:23:00,42.6,40.7,29.39,NW,315,0.0,6.0,93,0.00,,,0.11,174.0,WUHU216DAVISVP2,2013-04-09 09:23:00,
2013-04-09 10:28:00,42.9,41.0,29.39,WNW,296,0.0,5.0,93,0.00,,,0.11,193.0,WUHU216DAVISVP2,2013-04-09 09:28:00,
2013-04-09 10:33:00,43.2,41.3,29.39,NW,315,0.0,5.0,93,0.00,,,0.11,234.0,WUHU216DAVISVP2,2013-04-09 09:33:00,
2013-04-09 10:38:00,43.7,41.5,29.39,West,278,3.0,7.0,92,0.00,,,0.11,206.0,WUHU216DAVISVP2,2013-04-09 09:38:00,
2013-04-09 10:43:00,44.0,41.5,29.39,NNW,329,0.0,7.0,91,0.00,,,0.11,171.0,WUHU216DAVISVP2,2013-04-09 09:43:00,
2013-04-09 10:48:00,44.1,41.3,29.39,NNW,338,0.0,7.0,90,0.00,,,0.11,116.0,WUHU216DAVISVP2,2013-04-09 09:48:00,
2013-04-09 10:53:00,44.2,41.4,29.39,WNW,287,1.0,7.0,90,0.00,,,0.11,113.0,WUHU216DAVISVP2,2013-04-09 09:53:00,
2013-04-09 10:58:00,44.2,41.1,29.39,WNW,288,0.0,2.0,89,0.00,,,0.11,123.0,WUHU216DAVISVP2,2013-04-09 09:58:00,
2013-04-09 11:03:00,44.2,41.1,29.39,WNW,303,0.0,2.0,89,0.00,,,0.11,149.0,WUHU216DAVISVP2,2013-04-09 10:03:00,
2013-04-09 11:08:00,44.3,41.2,29.39,WNW,290,0.0,4.0,89,0.00,,,0.11,132.0,WUHU216DAVISVP2,2013-04-09 10:08:00,
2013-04-09 11:13:00,44.5,41.7,29.39,WNW,292,0.0,4.0,90,0.00,,,0.11,155.0,WUHU216DAVISVP2,2013-04-09 10:13:00,
2013-04-09 11:18:00,44.6,41.5,29.39,WNW,296,2.0,4.0,89,0.00,,,0.11,118.0,WUHU216DAVISVP2,2013-04-09 10:18:00,
2013-04-09 11:23:00,44.7,41.3,29.39,WNW,296,0.0,4.0,88,0.00,,,0.11,139.0,WUHU216DAVISVP2,2013-04-09 10:23:00,
2013-04-09 11:28:00,44.6,41.2,29.39,WNW,288,0.0,4.0,88,0.00,,,0.11,118.0,WUHU216DAVISVP2,2013-04-09 10:28:00,
2013-04-09 11:33:00,44.6,41.2,29.39,WNW,288,0.0,4.0,88,0.00,,,0.11,171.0,WUHU216DAVISVP2,2013-04-09 10:33:00,
2013-04-09 11:38:00,44.7,41.0,29.39,WNW,299,0.0,4.0,87,0.00,,,0.11,218.0,WUHU216DAVISVP2,2013-04-09 10:38:00,
2013-04-09 11:43:00,44.8,41.1,29.39,WNW,294,0.0,4.0,87,0.00,,,0.11,220.0,WUHU216DAVISVP2,2013-04-09 10:43:00,
2013-04-09 11:48:00,45.2,41.8,29.39,WNW,288,0.0,4.0,88,0.00,,,0.11,206.0,WUHU216DAVISVP2,2013-04-09 10:48:00,
2013-04-09 11:53:00,45.5,41.5,29.39,West,267,0.0,6.0,86,0.00,,,0.11,211.0,WUHU216DAVISVP2,2013-04-09 10:53:00,
2013-04-09 11:58:00,45.8,42.2,29.39,West,273,0.0,6.0,87,0.00,,,0.11,202.0,WUHU216DAVISVP2,2013-04-09 10:58:00,
2013-04-09 12:03:00,46.2,42.2,29.39,West,272,0.0,6.0,86,0.00,,,0.11,199.0,WUHU216DAVISVP2,2013-04-09 11:03:00,
2013-04-09 12:08:00,46.2,41.6,29.39,NW,309,0.0,6.0,84,0.00,,,0.11,200.0,WUHU216DAVISVP2,2013-04-09 11:08:00,
2013-04-09 12:13:00,46.3,41.7,29.39,WNW,295,0.0,4.0,84,0.00,,,0.11,160.0,WUHU216DAVISVP2,2013-04-09 11:13:00,
2013-04-09 12:18:00,46.5,41.9,29.39,ENE,76,1.0,5.0,84,0.00,,,0.11,204.0,WUHU216DAVISVP2,2013-04-09 11:18:00,
2013-04-09 12:23:00,46.6,41.7,29.39,North,360,0.0,5.0,83,0.00,,,0.11,186.0,WUHU216DAVISVP2,2013-04-09 11:23:00,
2013-04-09 12:29:00,46.8,42.2,29.39,WNW,291,1.0,5.0,84,0.00,,,0.11,239.0,WUHU216DAVISVP2,2013-04-09 11:29:00,
2013-04-09 12:34:00,47.2,42.6,29.39,WNW,287,0.0,5.0,84,0.00,,,0.11,285.0,WUHU216DAVISVP2,2013-04-09 11:34:00,
2013-04-09 12:39:00,47.6,42.4,29.39,NW,319,0.0,5.0,82,0.00,,,0.11,292.0,WUHU216DAVISVP2,2013-04-09 11:39:00,
2013-04-09 12:44:00,48.0,42.4,29.39,WNW,286,0.0,5.0,81,0.00,,,0.11,401.0,WUHU216DAVISVP2,2013-04-09 11:44:00,
2013-04-09 12:49:00,48.4,42.5,29.39,West,276,2.0,5.0,80,0.00,,,0.11,480.0,WUHU216DAVISVP2,2013-04-09 11:49:00,
2013-04-09 12:54:00,48.8,42.3,29.39,West,275,1.0,5.0,78,0.00,,,0.11,199.0,WUHU216DAVISVP2,2013-04-09 11:54:00,
2013-04-09 12:59:00,48.8,41.6,29.39,NNW,331,2.0,7.0,76,0.00,,,0.11,176.0,WUHU216DAVISVP2,2013-04-09 11:59:00,
2013-04-09 13:04:00,48.5,41.0,29.39,WNW,303,0.0,7.0,75,0.00,,,0.11,130.0,WUHU216DAVISVP2,2013-04-09 12:04:00,
2013-04-09 13:09:00,48.3,41.1,29.39,West,281,0.0,7.0,76,0.00,,,0.11,135.0,WUHU216DAVISVP2,2013-04-09 12:09:00,
2013-04-09 13:14:00,48.3,41.5,29.39,North,5,0.0,7.0,77,0.00,,,0.11,241.0,WUHU216DAVISVP2,2013-04-09 12:14:00,
2013-04-09 13:19:00,48.5,41.7,29.38,NE,44,1.0,6.0,77,0.00,,,0.11,710.0,WUHU216DAVISVP2,2013-04-09 12:19:00,
2013-04-09 13:24:00,49.3,41.8,29.39,West,277,0.0,7.0,75,0.00,,,0.11,431.0,WUHU216DAVISVP2,2013-04-09 12:24:00,
2013-04-09 13:29:00,49.5,41.6,29.39,NW,304,1.0,8.0,74,0.00,,,0.11,185.0,WUHU216DAVISVP2,2013-04-09 12:29:00,
2013-04-09 13:34:00,49.4,41.1,29.39,West,277,0.0,8.0,73,0.00,,,0.11,192.0,WUHU216DAVISVP2,2013-04-09 12:34:00,
2013-04-09 13:39:00,49.4,40.7,29.39,WNW,291,3.0,8.0,72,0.00,,,0.11,158.0,WUHU216DAVISVP2,2013-04-09 12:39:00,
2013-04-09 13:44:00,49.2,40.6,29.39,WNW,287,0.0,8.0,72,0.00,,,0.11,109.0,WUHU216DAVISVP2,2013-04-09 12:44:00,
2013-04-09 13:50:00,48.9,40.7,29.39,WNW,300,2.0,6.0,73,0.00,,,0.11,72.0,WUHU216DAVISVP2,2013-04-09 12:50:00,
2013-04-09 13:55:00,48.5,40.0,29.40,WNW,284,1.0,7.0,72,0.00,,,0.11,69.0,WUHU216DAVISVP2,2013-04-09 12:55:00,
2013-04-09 14:00:00,48.3,40.1,29.40,West,275,0.0,7.0,73,0.00,,,0.11,98.0,WUHU216DAVISVP2,2013-04-09 13:00:00,
2013-04-09 14:05:00,48.1,40.3,29.40,West,275,2.0,7.0,74,0.00,,,0.11,88.0,WUHU216DAVISVP2,2013-04-09 13:05:00,
2013-04-09 14:10:00,48.2,40.4,29.40,NW,321,1.0,7.0,74,0.00,,,0.11,81.0,WUHU216DAVISVP2,2013-04-09 13:10:00,
2013-04-09 14:15:00,48.1,39.9,29.40,WNW,302,1.0,4.0,73,0.00,,,0.11,134.0,WUHU216DAVISVP2,2013-04-09 13:15:00,
2013-04-09 14:20:00,48.2,39.9,29.40,NNE,14,0.0,4.0,73,0.00,,,0.11,178.0,WUHU216DAVISVP2,2013-04-09 13:20:00,
2013-04-09 14:25:00,48.4,40.1,29.40,West,276,0.0,4.0,73,0.00,,,0.11,116.0,WUHU216DAVISVP2,2013-04-09 13:25:00,
2013-04-09 14:30:00,48.5,40.0,29.41,WNW,284,1.0,5.0,72,0.00,,,0.11,69.0,WUHU216DAVISVP2,2013-04-09 13:30:00,
2013-04-09 14:35:00,48.4,39.9,29.41,West,277,0.0,5.0,72,0.00,,,0.11,47.0,WUHU216DAVISVP2,2013-04-09 13:35:00,
2013-04-09 14:40:00,48.2,39.7,29.41,West,270,1.0,5.0,72,0.00,,,0.11,35.0,WUHU216DAVISVP2,2013-04-09 13:40:00,
2013-04-09 14:45:00,48.0,39.5,29.41,WNW,303,0.0,5.0,72,0.00,,,0.11,56.0,WUHU216DAVISVP2,2013-04-09 13:45:00,
2013-04-09 14:50:00,47.9,39.4,29.41,NW,304,1.0,4.0,72,0.00,,,0.11,88.0,WUHU216DAVISVP2,2013-04-09 13:50:00,
2013-04-09 14:55:00,47.8,39.6,29.41,WNW,292,0.0,4.0,73,0.00,,,0.11,74.0,WUHU216DAVISVP2,2013-04-09 13:55:00,
2013-04-09 15:00:00,47.9,39.7,29.41,NW,314,0.0,4.0,73,0.00,,,0.11,72.0,WUHU216DAVISVP2,2013-04-09 14:00:00,
2013-04-09 15:05:00,47.9,39.7,29.41,NNE,20,2.0,4.0,73,0.00,,,0.11,67.0,WUHU216DAVISVP2,2013-04-09 14:05:00,
2013-04-09 15:10:00,47.9,39.7,29.41,WSW,256,0.0,2.0,73,0.00,,,0.11,47.0,WUHU216DAVISVP2,2013-04-09 14:10:00,
2013-04-09 15:15:00,47.8,39.6,29.42,WNW,294,0.0,4.0,73,0.00,,,0.11,49.0,WUHU216DAVISVP2,2013-04-09 14:15:00,
2013-04-09 15:20:00,47.7,39.8,29.41,WNW,300,0.0,4.0,74,0.00,,,0.11,54.0,WUHU216DAVISVP2,2013-04-09 14:20:00,
2013-04-09 15:25:00,47.6,39.8,29.42,WNW,292,0.0,4.0,74,0.00,,,0.11,97.0,WUHU216DAVISVP2,2013-04-09 14:25:00,
2013-04-09 15:30:00,47.7,40.2,29.42,WNW,292,0.0,4.0,75,0.00,,,0.11,102.0,WUHU216DAVISVP2,2013-04-09 14:30:00,
2013-04-09 15:35:00,47.8,40.3,29.42,WNW,291,0.0,4.0,75,0.00,,,0.11,90.0,WUHU216DAVISVP2,2013-04-09 14:35:00,
2013-04-09 15:40:00,47.9,40.4,29.42,WNW,291,0.0,4.0,75,0.00,,,0.11,63.0,WUHU216DAVISVP2,2013-04-09 14:40:00,
2013-04-09 15:45:00,48.0,39.8,29.42,WNW,294,2.0,2.0,73,0.00,,,0.11,70.0,WUHU216DAVISVP2,2013-04-09 14:45:00,
2013-04-09 15:50:00,48.0,39.8,29.42,WNW,288,2.0,2.0,73,0.00,,,0.11,53.0,WUHU216DAVISVP2,2013-04-09 14:50:00,
2013-04-09 15:55:00,47.9,39.7,29.42,WNW,288,0.0,4.0,73,0.00,,,0.11,47.0,WUHU216DAVISVP2,2013-04-09 14:55:00,
2013-04-09 16:00:00,47.8,39.6,29.42,West,279,0.0,4.0,73,0.00,,,0.11,46.0,WUHU216DAVISVP2,2013-04-09 15:00:00,
2013-04-09 16:05:00,47.7,39.6,29.42,West,275,1.0,4.0,73,0.00,,,0.11,35.0,WUHU216DAVISVP2,2013-04-09 15:05:00,
2013-04-09 16:10:00,47.6,39.7,29.42,West,276,0.0,4.0,74,0.00,,,0.11,35.0,WUHU216DAVISVP2,2013-04-09 15:10:00,
2013-04-09 16:15:00,47.5,39.7,29.42,WNW,290,0.0,4.0,74,0.00,,,0.11,32.0,WUHU216DAVISVP2,2013-04-09 15:15:00,
2013-04-09 16:20:00,47.4,39.3,29.42,WNW,284,0.0,4.0,73,0.00,,,0.11,33.0,WUHU216DAVISVP2,2013-04-09 15:20:00,
2013-04-09 16:25:00,47.3,39.4,29.43,West,280,0.0,4.0,74,0.00,,,0.11,19.0,WUHU216DAVISVP2,2013-04-09 15:25:00,
2013-04-09 16:30:00,47.3,39.5,29.43,WNW,292,0.0,4.0,74,0.00,,,0.11,28.0,WUHU216DAVISVP2,2013-04-09 15:30:00,
2013-04-09 16:35:00,47.2,39.7,29.43,WNW,286,1.0,4.0,75,0.00,,,0.11,42.0,WUHU216DAVISVP2,2013-04-09 15:35:00,
2013-04-09 16:40:00,47.1,39.9,29.43,WNW,286,0.0,2.0,76,0.00,,,0.11,63.0,WUHU216DAVISVP2,2013-04-09 15:40:00,
2013-04-09 16:45:00,47.1,40.0,29.43,WNW,282,1.0,2.0,76,0.00,,,0.11,67.0,WUHU216DAVISVP2,2013-04-09 15:45:00,
2013-04-09 16:50:00,47.1,40.0,29.43,WNW,282,0.0,2.0,76,0.00,,,0.11,39.0,WUHU216DAVISVP2,2013-04-09 15:50:00,
2013-04-09 16:55:00,47.1,40.3,29.43,WNW,282,0.0,2.0,77,0.00,,,0.11,33.0,WUHU216DAVISVP2,2013-04-09 15:55:00,
2013-04-09 17:00:00,47.1,40.0,29.43,WNW,283,1.0,2.0,76,0.00,,,0.11,46.0,WUHU216DAVISVP2,2013-04-09 16:00:00,
2013-04-09 17:05:00,47.0,39.9,29.44,NW,316,0.0,2.0,76,0.00,,,0.11,60.0,WUHU216DAVISVP2,2013-04-09 16:05:00,
2013-04-09 17:10:00,47.1,40.0,29.44,WNW,295,0.0,2.0,76,0.00,,,0.11,74.0,WUHU216DAVISVP2,2013-04-09 16:10:00,
2013-04-09 17:15:00,47.2,40.1,29.44,WNW,295,0.0,2.0,76,0.00,,,0.11,58.0,WUHU216DAVISVP2,2013-04-09 16:15:00,
2013-04-09 17:20:00,47.2,39.7,29.44,WNW,302,0.0,2.0,75,0.00,,,0.11,42.0,WUHU216DAVISVP2,2013-04-09 16:20:00,
2013-04-09 17:25:00,47.2,39.7,29.44,WNW,302,0.0,1.0,75,0.00,,,0.11,42.0,WUHU216DAVISVP2,2013-04-09 16:25:00,
2013-04-09 17:31:00,47.2,39.7,29.44,WNW,302,0.0,1.0,75,0.00,,,0.11,42.0,WUHU216DAVISVP2,2013-04-09 16:31:00,
2013-04-09 17:36:00,47.2,40.1,29.44,WNW,302,0.0,1.0,76,0.00,,,0.11,21.0,WUHU216DAVISVP2,2013-04-09 16:36:00,
2013-04-09 17:41:00,47.1,39.7,29.44,NE,54,0.0,2.0,75,0.00,,,0.11,47.0,WUHU216DAVISVP2,2013-04-09 16:41:00,
2013-04-09 17:47:00,47.1,39.7,29.44,West,268,0.0,2.0,75,0.00,,,0.11,46.0,WUHU216DAVISVP2,2013-04-09 16:47:00,
2013-04-09 17:52:00,47.0,39.9,29.44,West,273,0.0,4.0,76,0.00,,,0.11,42.0,WUHU216DAVISVP2,2013-04-09 16:52:00,
2013-04-09 17:57:00,47.0,39.9,29.45,WNW,300,0.0,4.0,76,0.00,,,0.11,44.0,WUHU216DAVISVP2,2013-04-09 16:57:00,
2013-04-09 18:02:00,47.0,39.6,29.45,WNW,289,0.0,4.0,75,0.00,,,0.11,44.0,WUHU216DAVISVP2,2013-04-09 17:02:00,
2013-04-09 18:07:00,46.9,39.8,29.45,WNW,289,0.0,4.0,76,0.00,,,0.11,46.0,WUHU216DAVISVP2,2013-04-09 17:07:00,
2013-04-09 18:12:00,46.9,39.8,29.45,WNW,289,0.0,2.0,76,0.00,,,0.11,37.0,WUHU216DAVISVP2,2013-04-09 17:12:00,
2013-04-09 18:17:00,46.9,39.8,29.45,WNW,289,0.0,2.0,76,0.00,,,0.11,32.0,WUHU216DAVISVP2,2013-04-09 17:17:00,
2013-04-09 18:22:00,46.8,39.7,29.45,West,277,0.0,4.0,76,0.00,,,0.11,23.0,WUHU216DAVISVP2,2013-04-09 17:22:00,
2013-04-09 18:27:00,46.7,39.6,29.45,West,274,0.0,4.0,76,0.00,,,0.11,14.0,WUHU216DAVISVP2,2013-04-09 17:27:00,
2013-04-09 18:32:00,46.7,39.6,29.45,West,274,0.0,4.0,76,0.00,,,0.11,25.0,WUHU216DAVISVP2,2013-04-09 17:32:00,
2013-04-09 18:37:00,46.6,39.8,29.45,West,274,0.0,4.0,77,0.00,,,0.11,30.0,WUHU216DAVISVP2,2013-04-09 17:37:00,
2013-04-09 18:42:00,46.6,39.8,29.45,West,274,0.0,1.0,77,0.00,,,0.11,32.0,WUHU216DAVISVP2,2013-04-09 17:42:00,
2013-04-09 18:47:00,46.5,39.7,29.45,West,274,0.0,2.0,77,0.00,,,0.11,32.0,WUHU216DAVISVP2,2013-04-09 17:47:00,
2013-04-09 18:52:00,46.5,39.7,29.46,West,274,0.0,2.0,77,0.00,,,0.11,32.0,WUHU216DAVISVP2,2013-04-09 17:52:00,
2013-04-09 18:58:00,46.5,39.7,29.46,West,274,0.0,2.0,77,0.00,,,0.11,23.0,WUHU216DAVISVP2,2013-04-09 17:58:00,
2013-04-09 19:03:00,46.5,39.7,29.46,West,274,0.0,2.0,77,0.00,,,0.11,16.0,WUHU216DAVISVP2,2013-04-09 18:03:00,
2013-04-09 19:08:00,46.4,39.6,29.46,West,274,0.0,1.0,77,0.00,,,0.11,11.0,WUHU216DAVISVP2,2013-04-09 18:08:00,
2013-04-09 19:13:00,46.3,39.5,29.46,West,274,0.0,1.0,77,0.00,,,0.11,7.0,WUHU216DAVISVP2,2013-04-09 18:13:00,
2013-04-09 19:18:00,46.3,39.9,29.46,West,274,0.0,1.0,78,0.00,,,0.11,9.0,WUHU216DAVISVP2,2013-04-09 18:18:00,
2013-04-09 19:23:00,46.2,40.1,29.46,West,275,0.0,1.0,79,0.00,,,0.11,9.0,WUHU216DAVISVP2,2013-04-09 18:23:00,
2013-04-09 19:28:00,46.2,39.8,29.46,West,274,0.0,1.0,78,0.00,,,0.11,7.0,WUHU216DAVISVP2,2013-04-09 18:28:00,
2013-04-09 19:33:00,46.1,39.7,29.47,West,274,0.0,1.0,78,0.00,,,0.11,7.0,WUHU216DAVISVP2,2013-04-09 18:33:00,
2013-04-09 19:38:00,46.0,39.9,29.47,West,274,0.0,1.0,79,0.00,,,0.11,5.0,WUHU216DAVISVP2,2013-04-09 18:38:00,
2013-04-09 19:43:00,46.0,39.9,29.47,West,274,0.0,1.0,79,0.00,,,0.11,0.0,WUHU216DAVISVP2,2013-04-09 18:43:00,
2013-04-09 19:48:00,45.9,39.8,29.47,West,274,0.0,1.0,79,0.00,,,0.11,0.0,WUHU216DAVISVP2,2013-04-09 18:48:00,
2013-04-09 19:53:00,45.8,39.7,29.47,West,274,0.0,1.0,79,0.00,,,0.11,0.0,WUHU216DAVISVP2,2013-04-09 18:53:00,
2013-04-09 19:58:00,45.7,39.9,29.47,West,274,0.0,1.0,80,0.00,,,0.11,0.0,WUHU216DAVISVP2,2013-04-09 18:58:00,
2013-04-09 20:03:00,45.7,39.9,29.48,West,274,0.0,1.0,80,0.00,,,0.11,0.0,WUHU216DAVISVP2,2013-04-09 19:03:00,
2013-04-09 20:08:00,45.6,39.8,29.48,West,274,0.0,1.0,80,0.00,,,0.11,0.0,WUHU216DAVISVP2,2013-04-09 19:08:00,
2013-04-09 20:13:00,45.4,39.6,29.48,West,274,0.0,1.0,80,0.00,,,0.11,0.0,WUHU216DAVISVP2,2013-04-09 19:13:00,
2013-04-09 20:18:00,45.3,39.8,29.49,West,274,0.0,1.0,81,0.00,,,0.11,0.0,WUHU216DAVISVP2,2013-04-09 19:18:00,
2013-04-09 20:23:00,45.3,39.8,29.49,West,274,0.0,1.0,81,0.00,,,0.11,0.0,WUHU216DAVISVP2,2013-04-09 19:23:00,
2013-04-09 20:28:00,45.2,40.0,29.49,West,274,0.0,1.0,82,0.00,,,0.11,0.0,WUHU216DAVISVP2,2013-04-09 19:28:00,
2013-04-09 20:33:00,45.0,39.8,29.49,West,274,0.0,1.0,82,0.00,,,0.11,0.0,WUHU216DAVISVP2,2013-04-09 19:33:00,
2013-04-09 20:38:00,45.0,40.1,29.49,West,274,0.0,0.0,83,0.00,,,0.11,0.0,WUHU216DAVISVP2,2013-04-09 19:38:00,
2013-04-09 20:43:00,44.9,40.0,29.50,West,274,0.0,0.0,83,0.00,,,0.11,0.0,WUHU216DAVISVP2,2013-04-09 19:43:00,
2013-04-09 20:48:00,44.8,40.0,29.50,West,274,0.0,2.0,83,0.00,,,0.11,0.0,WUHU216DAVISVP2,2013-04-09 19:48:00,
2013-04-09 20:53:00,44.7,39.9,29.50,West,275,0.0,2.0,83,0.00,,,0.11,0.0,WUHU216DAVISVP2,2013-04-09 19:53:00,
2013-04-09 20:58:00,44.7,39.9,29.50,West,275,0.0,2.0,83,0.00,,,0.11,0.0,WUHU216DAVISVP2,2013-04-09 19:58:00,
2013-04-09 21:03:00,44.6,40.1,29.50,West,275,0.0,2.0,84,0.00,,,0.11,0.0,WUHU216DAVISVP2,2013-04-09 20:03:00,
2013-04-09 21:08:00,44.5,40.0,29.50,West,275,0.0,1.0,84,0.00,,,0.11,0.0,WUHU216DAVISVP2,2013-04-09 20:08:00,
2013-04-09 21:13:00,44.4,39.9,29.51,West,275,0.0,0.0,84,0.00,,,0.11,0.0,WUHU216DAVISVP2,2013-04-09 20:13:00,
2013-04-09 21:18:00,44.3,39.8,29.51,West,275,0.0,0.0,84,0.00,,,0.11,0.0,WUHU216DAVISVP2,2013-04-09 20:18:00,
2013-04-09 21:23:00,44.2,39.7,29.51,West,274,0.0,0.0,84,0.00,,,0.11,0.0,WUHU216DAVISVP2,2013-04-09 20:23:00,
2013-04-09 21:28:00,44.1,39.6,29.51,West,274,0.0,0.0,84,0.00,,,0.11,0.0,WUHU216DAVISVP2,2013-04-09 20:28:00,
2013-04-09 21:33:00,44.0,39.8,29.51,West,275,0.0,0.0,85,0.00,,,0.11,0.0,WUHU216DAVISVP2,2013-04-09 20:33:00,
2013-04-09 21:38:00,44.0,39.8,29.51,West,275,0.0,0.0,85,0.00,,,0.11,0.0,WUHU216DAVISVP2,2013-04-09 20:38:00,
2013-04-09 21:43:00,43.9,39.7,29.51,West,275,0.0,0.0,85,0.00,,,0.11,0.0,WUHU216DAVISVP2,2013-04-09 20:43:00,
2013-04-09 21:48:00,43.7,39.5,29.51,West,275,0.0,0.0,85,0.00,,,0.11,0.0,WUHU216DAVISVP2,2013-04-09 20:48:00,
2013-04-09 21:53:00,43.6,39.4,29.51,West,275,0.0,0.0,85,0.00,,,0.11,0.0,WUHU216DAVISVP2,2013-04-09 20:53:00,
2013-04-09 21:59:00,43.4,39.5,29.51,West,274,0.0,0.0,86,0.01,,,0.12,0.0,WUHU216DAVISVP2,2013-04-09 20:59:00,
2013-04-09 22:04:00,43.3,39.1,29.52,West,275,0.0,1.0,85,0.01,,,0.12,0.0,WUHU216DAVISVP2,2013-04-09 21:04:00,
2013-04-09 22:09:00,43.2,39.3,29.52,West,275,0.0,1.0,86,0.01,,,0.12,0.0,WUHU216DAVISVP2,2013-04-09 21:09:00,
2013-04-09 22:14:00,43.1,39.2,29.52,West,275,0.0,1.0,86,0.01,,,0.12,0.0,WUHU216DAVISVP2,2013-04-09 21:14:00,
2013-04-09 22:19:00,43.0,39.1,29.52,West,275,0.0,1.0,86,0.01,,,0.12,0.0,WUHU216DAVISVP2,2013-04-09 21:19:00,
2013-04-09 22:24:00,42.9,39.0,29.52,West,275,0.0,1.0,86,0.01,,,0.12,0.0,WUHU216DAVISVP2,2013-04-09 21:24:00,
2013-04-09 22:29:00,42.9,39.0,29.51,West,275,0.0,1.0,86,0.01,,,0.12,0.0,WUHU216DAVISVP2,2013-04-09 21:29:00,
2013-04-09 22:35:00,42.8,38.9,29.52,West,275,0.0,1.0,86,0.01,,,0.12,0.0,WUHU216DAVISVP2,2013-04-09 21:35:00,
2013-04-09 22:40:00,42.7,38.8,29.52,West,275,0.0,1.0,86,0.01,,,0.12,0.0,WUHU216DAVISVP2,2013-04-09 21:40:00,
2013-04-09 22:45:00,42.7,38.8,29.52,West,275,0.0,1.0,86,0.01,,,0.12,0.0,WUHU216DAVISVP2,2013-04-09 21:45:00,
2013-04-09 22:50:00,42.5,38.6,29.52,West,275,0.0,1.0,86,0.01,,,0.12,0.0,WUHU216DAVISVP2,2013-04-09 21:50:00,
2013-04-09 22:55:00,42.4,38.5,29.52,West,275,0.0,1.0,86,0.01,,,0.12,0.0,WUHU216DAVISVP2,2013-04-09 21:55:00,
2013-04-09 23:00:00,42.3,38.7,29.53,West,275,0.0,0.0,87,0.00,,,0.12,0.0,WUHU216DAVISVP2,2013-04-09 22:00:00,
2013-04-09 23:05:00,42.2,38.6,29.53,West,275,0.0,0.0,87,0.00,,,0.12,0.0,WUHU216DAVISVP2,2013-04-09 22:05:00,
2013-04-09 23:10:00,42.1,38.5,29.53,West,275,0.0,0.0,87,0.00,,,0.12,0.0,WUHU216DAVISVP2,2013-04-09 22:10:00,
2013-04-09 23:15:00,42.0,38.4,29.53,West,275,0.0,0.0,87,0.00,,,0.12,0.0,WUHU216DAVISVP2,2013-04-09 22:15:00,
2013-04-09 23:20:00,41.8,38.2,29.54,West,275,0.0,0.0,87,0.00,,,0.12,0.0,WUHU216DAVISVP2,2013-04-09 22:20:00,
2013-04-09 23:25:00,41.7,38.1,29.54,West,275,0.0,0.0,87,0.00,,,0.12,0.0,WUHU216DAVISVP2,2013-04-09 22:25:00,
2013-04-09 23:30:00,41.6,38.3,29.54,West,275,0.0,0.0,88,0.00,,,0.12,0.0,WUHU216DAVISVP2,2013-04-09 22:30:00,
2013-04-09 23:35:00,41.5,38.2,29.54,West,275,0.0,0.0,88,0.00,,,0.12,0.0,WUHU216DAVISVP2,2013-04-09 22:35:00,
2013-04-09 23:40:00,41.4,38.4,29.55,West,275,0.0,0.0,89,0.00,,,0.12,0.0,WUHU216DAVISVP2,2013-04-09 22:40:00,
2013-04-09 23:45:00,41.4,38.4,29.55,West,275,0.0,0.0,89,0.00,,,0.12,0.0,WUHU216DAVISVP2,2013-04-09 22:45:00,
2013-04-09 23:50:00,41.3,38.5,29.55,West,275,0.0,0.0,90,0.00,,,0.12,0.0,WUHU216DAVISVP2,2013-04-09 22:50:00,
2013-04-09 23:55:00,41.3,38.5,29.55,West,275,0.0,0.0,90,0.00,,,0.12,0.0,WUHU216DAVISVP2,2013-04-09 22:55:00,